Fairmont, MN

8:03 PM CST on January 19, 2018 (GMT -0600)
Fairmont Municipal

Weather History for KFRM - April, 2014

Change the Weather History Date:

Monday, April 21, 2014

  Actual Average Record
Temperature  
Mean Temperature 57 °F -  
Max Temperature 68 °F 59 °F 89 °F (1980)
Min Temperature 44 °F 38 °F 27 °F (1966)
Degree Days  
Heating Degree Days 8    
Growing Degree Days 7 (Base 50)    
Moisture  
Dew Point 41 °F    
Average Humidity 55    
Maximum Humidity 88    
Minimum Humidity 26    
Precipitation  
Precipitation 0.06 in - - ()
Sea Level Pressure  
Sea Level Pressure 30.00 in    
Wind  
Wind Speed 14 mph (NW)    
Max Wind Speed 28 mph    
Max Gust Speed 40 mph    
Visibility 10 miles    
Events Thunderstorm    
Averages and records for this station are not official NWS values.
T = Trace of Precipitation, MM = Missing Value Source: NWS Daily Summary

Daily Weather History Graph

Daily Weather History Graph

Search for Another Location

Airport or City:

Trip Planner

Search our weather history database for the weather conditions in past years. The results will help you decide how hot, cold, wet, or windy it might be!

Date:

Astronomy

Apr. 21, 2014 Rise Set
Actual Time 6:25 AM CDT 8:08 PM CDT
Civil Twilight 5:54 AM CDT 8:38 PM CDT
Nautical Twilight 5:17 AM CDT 9:15 PM CDT
Astronomical Twilight 4:38 AM CDT 9:55 PM CDT
Moon 1:41 AM CDT (4/21) 11:50 AM CDT (4/21)
Length of Visible Light 14h 44m
Length of Day
13h 43m
Waning Gibbous, 57% of the Moon is Illuminated
Apr 21
Waning Gibbous
Apr 22
Last Quarter
Apr 29
New
May 6
First Quarter
May 14
Full

Hourly Weather History & Observations

Time (CDT) Temp. Windchill Dew Point Humidity Pressure Visibility Wind Dir Wind Speed Gust Speed Precip Events Conditions
12:15 AM 59.0 °F - 53.6 °F 82% 29.94 in 10.0 mi SSE 4.6 mph - N/A   Overcast
12:35 AM 59.0 °F - 53.6 °F 82% 29.94 in 10.0 mi Calm Calm - N/A   Mostly Cloudy
12:55 AM 59.0 °F - 53.6 °F 82% 29.95 in 10.0 mi ENE 3.5 mph - N/A   Overcast
1:15 AM 57.2 °F - 53.6 °F 88% 29.94 in 10.0 mi East 6.9 mph - N/A   Overcast
1:35 AM 57.2 °F - 53.6 °F 88% 29.94 in 10.0 mi Calm Calm - N/A   Overcast
1:55 AM 57.2 °F - 51.8 °F 82% 29.93 in 10.0 mi SE 6.9 mph - N/A   Mostly Cloudy
2:15 AM 57.2 °F - 53.6 °F 88% 29.93 in 9.0 mi SSE 4.6 mph - N/A Thunderstorm Thunderstorm
2:35 AM 57.2 °F - 53.6 °F 88% 29.92 in 10.0 mi South 9.2 mph - N/A Thunderstorm Thunderstorm
2:55 AM 59.0 °F - 53.6 °F 82% 29.92 in 10.0 mi South 13.8 mph - N/A   Mostly Cloudy
3:15 AM 60.8 °F - 53.6 °F 77% 29.92 in 10.0 mi South 16.1 mph - N/A   Mostly Cloudy
3:35 AM 59.0 °F - 51.8 °F 77% 29.92 in 10.0 mi South 12.7 mph - N/A   Mostly Cloudy
3:55 AM 57.2 °F - 51.8 °F 82% 29.92 in 10.0 mi South 12.7 mph - N/A   Scattered Clouds
4:15 AM 59.0 °F - 51.8 °F 77% 29.92 in 10.0 mi SSW 13.8 mph - N/A   Partly Cloudy
4:35 AM 60.8 °F - 51.8 °F 72% 29.92 in 10.0 mi SSW 16.1 mph - N/A   Scattered Clouds
4:55 AM 60.8 °F - 50.0 °F 68% 29.91 in 10.0 mi SSW 19.6 mph 23.0 mph N/A   Overcast
5:15 AM 60.8 °F - 50.0 °F 68% 29.91 in 10.0 mi SSW 18.4 mph 24.2 mph N/A   Overcast
5:35 AM 60.8 °F - 50.0 °F 68% 29.91 in 10.0 mi SSW 16.1 mph - N/A   Overcast
5:55 AM 60.8 °F - 51.8 °F 72% 29.91 in 10.0 mi SSW 16.1 mph - N/A   Overcast
6:15 AM 59.0 °F - 51.8 °F 77% 29.92 in 10.0 mi SW 9.2 mph - N/A   Mostly Cloudy
6:35 AM 59.0 °F - 51.8 °F 77% 29.94 in 10.0 mi WSW 15.0 mph 18.4 mph 0.03 in   Mostly Cloudy
6:55 AM 57.2 °F - 53.6 °F 88% 29.95 in 10.0 mi WSW 16.1 mph - 0.04 in   Overcast
7:15 AM 57.2 °F - 51.8 °F 82% 29.94 in 10.0 mi WSW 11.5 mph - 0.01 in   Overcast
7:35 AM 57.2 °F - 51.8 °F 82% 29.95 in 10.0 mi West 13.8 mph - 0.01 in   Mostly Cloudy
7:55 AM 59.0 °F - 53.6 °F 82% 29.95 in 10.0 mi West 15.0 mph 19.6 mph 0.01 in   Clear
8:15 AM 59.0 °F - 51.8 °F 77% 29.96 in 10.0 mi WNW 11.5 mph - N/A   Mostly Cloudy
8:35 AM 59.0 °F - 53.6 °F 82% 29.97 in 9.0 mi NNW 10.4 mph - N/A   Overcast
8:55 AM 60.8 °F - 53.6 °F 77% 29.97 in 9.0 mi NNW 12.7 mph 17.3 mph N/A   Overcast
9:15 AM 59.0 °F - 53.6 °F 82% 29.97 in 7.0 mi NNW 15.0 mph 19.6 mph N/A   Overcast
9:35 AM 59.0 °F - 53.6 °F 82% 29.98 in 7.0 mi NW 16.1 mph 20.7 mph N/A   Overcast
9:55 AM 60.8 °F - 53.6 °F 77% 29.98 in 8.0 mi NNW 16.1 mph - N/A   Mostly Cloudy
10:15 AM 60.8 °F - 51.8 °F 72% 29.98 in 10.0 mi NNW 17.3 mph 23.0 mph N/A   Overcast
10:35 AM 64.4 °F - 44.6 °F 49% 29.99 in 10.0 mi NNW 21.9 mph 26.5 mph N/A   Scattered Clouds
10:55 AM 64.4 °F - 39.2 °F 40% 29.99 in 10.0 mi North 18.4 mph 29.9 mph N/A   Clear
11:15 AM 66.2 °F - 35.6 °F 32% 30.00 in 10.0 mi North 23.0 mph 31.1 mph 0.01 in   Clear
11:35 AM 66.2 °F - 35.6 °F 32% 30.01 in 10.0 mi North 24.2 mph 29.9 mph 0.01 in   Clear
11:55 AM 68.0 °F - 33.8 °F 28% 30.00 in 10.0 mi NNW 27.6 mph 32.2 mph 0.01 in   Clear
12:15 PM 66.2 °F - 30.2 °F 26% 30.01 in 10.0 mi NNW 26.5 mph 31.1 mph N/A   Clear
12:35 PM 66.2 °F - 33.8 °F 30% 30.00 in 10.0 mi NNW 21.9 mph - N/A   Clear
12:55 PM 68.0 °F - 33.8 °F 28% 30.00 in 10.0 mi NNW 24.2 mph 33.4 mph N/A   Clear
1:15 PM 68.0 °F - 33.8 °F 28% 30.00 in 10.0 mi NNW 20.7 mph 29.9 mph N/A   Clear
1:35 PM 66.2 °F - 33.8 °F 30% 30.00 in 10.0 mi NNW 24.2 mph 32.2 mph N/A   Clear
1:55 PM 68.0 °F - 33.8 °F 28% 30.00 in 10.0 mi NW 24.2 mph 29.9 mph N/A   Clear
2:15 PM 66.2 °F - 35.6 °F 32% 30.01 in 10.0 mi NNW 24.2 mph 31.1 mph N/A   Clear
2:35 PM 66.2 °F - 35.6 °F 32% 30.01 in 10.0 mi NNW 23.0 mph 28.8 mph N/A   Clear
2:55 PM 66.2 °F - 35.6 °F 32% 30.01 in 10.0 mi NNW 26.5 mph 32.2 mph N/A   Clear
3:15 PM 66.2 °F - 35.6 °F 32% 30.01 in 10.0 mi NW 23.0 mph 31.1 mph N/A   Clear
3:35 PM 66.2 °F - 37.4 °F 35% 30.01 in 10.0 mi NNW 26.5 mph 33.4 mph N/A   Clear
3:55 PM 66.2 °F - 35.6 °F 32% 30.01 in 10.0 mi NNW 25.3 mph 40.3 mph N/A   Clear
4:15 PM 64.4 °F - 35.6 °F 34% 30.02 in 10.0 mi NNW 27.6 mph 31.1 mph N/A   Clear
4:35 PM 64.4 °F - 35.6 °F 34% 30.02 in 10.0 mi NNW 27.6 mph 34.5 mph N/A   Clear
4:55 PM 64.4 °F - 35.6 °F 34% 30.02 in 10.0 mi NNW 27.6 mph 35.7 mph N/A   Clear
5:15 PM 62.6 °F - 33.8 °F 34% 30.03 in 10.0 mi NNW 27.6 mph 34.5 mph N/A   Clear
5:35 PM 62.6 °F - 32.0 °F 32% 30.03 in 10.0 mi NNW 26.5 mph 34.5 mph N/A   Clear
5:55 PM 60.8 °F - 32.0 °F 34% 30.03 in 10.0 mi NW 23.0 mph 31.1 mph N/A   Clear
6:15 PM 60.8 °F - 30.2 °F 31% 30.04 in 10.0 mi NNW 26.5 mph 31.1 mph N/A   Clear
6:35 PM 59.0 °F - 28.4 °F 31% 30.05 in 10.0 mi NNW 26.5 mph 33.4 mph N/A   Clear
6:55 PM 57.2 °F - 28.4 °F 33% 30.05 in 10.0 mi NNW 21.9 mph 31.1 mph N/A   Clear
7:15 PM 57.2 °F - 30.2 °F 36% 30.06 in 10.0 mi NNW 25.3 mph 32.2 mph N/A   Clear
7:35 PM 55.4 °F - 30.2 °F 38% 30.06 in 10.0 mi NNW 25.3 mph 29.9 mph N/A   Clear
7:55 PM 55.4 °F - 30.2 °F 38% 30.07 in 10.0 mi NNW 21.9 mph 27.6 mph N/A   Clear
8:15 PM 53.6 °F - 30.2 °F 41% 30.07 in 10.0 mi NNW 20.7 mph 25.3 mph N/A   Clear
8:35 PM 53.6 °F - 30.2 °F 41% 30.08 in 10.0 mi NNW 19.6 mph - N/A   Clear
8:55 PM 51.8 °F - 30.2 °F 44% 30.08 in 10.0 mi NNW 19.6 mph 23.0 mph N/A   Clear
9:15 PM 51.8 °F - 30.2 °F 44% 30.09 in 10.0 mi NNW 18.4 mph 24.2 mph N/A   Clear
9:35 PM 51.8 °F - 30.2 °F 44% 30.09 in 10.0 mi NNW 17.3 mph - N/A   Clear
9:55 PM 50.0 °F - 28.4 °F 43% 30.10 in 10.0 mi NNW 15.0 mph - N/A   Clear
10:15 PM 48.2 °F - 28.4 °F 46% 30.11 in 10.0 mi NNW 13.8 mph 24.2 mph N/A   Clear
10:35 PM 48.2 °F - 28.4 °F 46% 30.12 in 10.0 mi NNW 15.0 mph - N/A   Clear
10:55 PM 48.2 °F - 26.6 °F 43% 30.12 in 10.0 mi NNW 15.0 mph - N/A   Clear
11:15 PM 46.4 °F 40.1 °F 26.6 °F 46% 30.12 in 10.0 mi NNW 15.0 mph - N/A   Clear
11:35 PM 46.4 °F 40.4 °F 26.6 °F 46% 30.12 in 10.0 mi NNW 13.8 mph - N/A   Clear
11:55 PM 44.6 °F 38.1 °F 26.6 °F 49% 30.13 in 10.0 mi NNW 13.8 mph - N/A   Clear